Location: ???????
(55.3754°N, 39.3545°E)
Time: 15:32:17
(UTC+00:00)

Lacrosse 5 rocket - Pass Details

Date: 14 April 2026
Orbit: 390 x 472 km, 57.0° (Epoch: 16 May)

Event Time Altitude Azimuth Distance (km) Brightness Sun altitude
Rises 19:27:34 0° 269° (W) 2,289 4.9 -20.7°
Reaches altitude 10° 19:29:38 10° 272° (W) 1,430 3.8 -20.8°
Enters shadow 19:32:36 62° 330° (NNW) 449 1.1 -21.0°
